Terminal Aerodrome Forecast
Issued by NWS

Home | Current Version | Previous Version | Text Only | Print | Product List | Glossary On
Versions: 1 2 3 4 5 6 7 8 9 10 11 12 13 14 15 16 17 18 19 20 21 22 23 24 25 26 27 28 29 30 31 32 33 34 35 36 37 38 39 40 41 42 43 44 45 46 47 48 49 50
000
FTUS41 KCTP 301933 AAA
TAFLNS
TAF AMD
KLNS 301933Z 3020/3118 19012KT P6SM VCSH BKN060
     FM310200 17009KT P6SM BKN050
     FM310600 15007KT 5SM BR BKN070
     FM311500 25005KT 6SM HZ BKN250=

USA.gov is the U.S. government's official web portal to all federal, state and local government web resources and services.